{"data":{"norad_id":64672,"intl_designator":"2025-139J","name":"STARLINK-34442","alt_names":[],"object_type":"PAYLOAD","status":"ACTIVE","operator":null,"country":"US","launch_date":"2025-06-28","launch_site_code":"AFETR","launch_vehicle":null,"mission":null,"orbit_class":"UNKNOWN","rcs_meters":null,"size_class":null,"mass_kg":null,"dimensions":null,"purposes":["comms"],"wikipedia_slug":null,"has_3d_model":false,"image_url":null,"decayed_at":null,"tle_current":{"epoch":"2026-09-20T08:45:26.872704Z","epoch_age_seconds":143033,"freshness":"FRESH","line1":"1 64672U 25139J   26263.36489436  .00026444  00000+0  79068-3 0  9999","line2":"2 64672  53.1593 298.2646 0001666  83.8041 276.3151 15.34413094 70155","mean_motion":15.34413094,"eccentricity":0.0001666,"inclination_deg":53.1593,"raan_deg":298.2646,"arg_perigee_deg":83.8041,"mean_anomaly_deg":276.3151,"bstar":0.00079068,"rev_number":7015,"period_min":93.84695722624,"perigee_km":461.52464485612,"apogee_km":463.80399985673,"semimajor_km":6840.8013223564,"source":"CELESTRAK","updated_at":"2026-09-21T09:00:35.398381Z"}}}